GFSMW_prec_precacc_162.txt.gz
Total_Precipitation_Accumulation
0.02 0.03 0.02 0.02 0.01 0.06 0.05 0.11 0.27 0.28 0.44 0.41 0.29 0.36 0.36 0.57 0.42 0.45 0.54 0.95 1.17 1.89 1.04 0.56 0.32 0.43 0.50 0.61 1.05 1.50 1.44 1.51 1.84 2.51 2.43 1.86 1.70 2.06 2.41 2.97 2.95 3.36 3.33
0.01 0.01 0.00 0.00 0.01 0.05 0.04 0.02 0.06 0.15 0.22 0.26 0.29 0.18 0.23 0.33 0.51 0.56 0.65 0.72 0.83 1.21 1.45 0.85 0.61 0.43 0.52 0.58 0.72 1.10 1.21 1.24 1.37 1.64 1.67 1.71 1.35 1.06 0.86 0.88 0.90 0.81 0.84
0.00 0.00 0.00 0.00 0.01 0.02 0.02 0.04 0.08 0.11 0.10 0.16 0.28 0.25 0.37 0.40 0.61 0.73 0.88 0.67 0.72 0.98 1.17 1.05 0.91 0.85 1.18 1.22 1.24 1.46 1.49 1.31 1.29 1.19 1.41 1.18 1.00 0.92 0.95 0.92 0.73 0.71 0.62
0.01 0.00 0.01 0.01 0.05 0.07 0.07 0.10 0.10 0.08 0.05 0.06 0.10 0.09 0.15 0.13 0.15 0.18 0.47 0.75 0.81 1.21 1.50 1.15 1.08 0.87 0.81 0.97 0.99 1.12 1.31 1.48 1.53 1.55 1.66 1.35 1.15 0.95 0.82 0.80 0.84 0.60 0.42
0.08 0.05 0.04 0.04 0.06 0.08 0.07 0.07 0.13 0.14 0.10 0.11 0.08 0.10 0.11 0.14 0.14 0.09 0.13 0.42 0.70 0.60 1.16 1.33 1.29 1.07 0.91 0.80 0.83 0.71 0.69 0.60 0.78 0.55 0.47 0.59 0.51 0.51 0.61 0.53 0.40 0.39 0.23
0.12 0.13 0.16 0.10 0.12 0.17 0.11 0.08 0.10 0.11 0.15 0.16 0.18 0.14 0.16 0.16 0.12 0.09 0.12 0.20 0.42 0.86 1.03 1.31 1.12 1.20 1.15 1.11 1.31 1.38 1.06 0.78 0.65 0.71 0.44 0.41 0.40 0.31 0.39 0.40 0.34 0.38 0.30
0.23 0.16 0.12 0.10 0.11 0.22 0.32 0.24 0.25 0.24 0.18 0.14 0.15 0.19 0.20 0.18 0.18 0.19 0.29 0.39 0.50 0.83 1.01 1.26 1.22 1.12 1.23 1.14 1.16 1.39 1.61 1.57 1.08 0.93 0.81 0.65 0.48 0.44 0.50 0.65 0.55 0.45 0.32
0.49 0.34 0.24 0.20 0.15 0.11 0.18 0.31 0.49 0.53 0.48 0.40 0.36 0.39 0.42 0.41 0.41 0.46 0.65 0.64 0.47 0.46 0.88 1.36 1.51 1.27 1.28 1.36 1.38 1.48 1.49 1.80 1.86 1.23 0.96 0.73 0.61 0.64 0.61 0.68 0.86 0.73 0.48
0.57 0.50 0.38 0.27 0.22 0.18 0.35 0.41 0.37 0.31 0.46 0.61 0.52 0.55 0.61 0.68 0.82 0.80 0.83 0.79 0.56 0.39 0.47 0.59 1.00 1.16 1.28 1.54 1.76 1.59 1.37 1.39 1.53 1.29 0.99 0.83 0.59 0.67 0.67 0.61 0.65 0.73 0.64
0.44 0.32 0.25 0.27 0.30 0.62 0.97 1.06 0.91 0.74 0.71 0.79 0.73 0.78 0.86 0.87 0.90 0.78 0.94 0.83 0.78 0.74 0.80 0.72 0.95 1.23 1.53 1.57 1.59 1.35 1.20 1.28 1.36 1.58 1.50 1.09 0.70 0.67 0.79 0.78 0.79 0.83 0.82
0.13 0.14 0.19 0.26 0.44 0.57 0.84 1.07 1.28 1.65 1.41 1.37 1.42 1.19 1.00 1.13 1.14 1.10 1.10 1.13 1.04 1.06 1.02 1.03 1.03 0.84 0.98 1.32 1.61 1.66 1.58 1.67 1.71 1.77 1.55 1.18 1.08 1.11 1.09 1.13 1.12 1.02 1.03
0.08 0.07 0.07 0.10 0.32 0.55 0.70 0.82 1.13 1.80 1.70 1.32 1.55 1.67 1.40 1.71 2.06 2.10 1.80 1.93 1.88 1.64 1.50 1.19 1.00 0.80 0.67 0.83 1.43 1.75 1.61 1.40 1.64 1.93 1.91 1.56 1.38 1.34 1.28 1.23 1.12 0.95 0.90
0.06 0.07 0.09 0.12 0.20 0.37 0.58 0.75 1.07 1.58 1.75 1.93 1.82 1.65 1.39 1.76 1.58 1.21 0.99 0.86 0.82 0.79 0.83 0.83 0.82 0.84 0.61 0.53 0.72 1.18 1.69 1.56 1.37 1.57 1.86 1.61 1.39 1.22 1.17 1.09 0.90 0.77 0.75
0.14 0.15 0.16 0.19 0.25 0.42 0.58 0.74 1.26 1.48 1.40 1.70 1.73 1.52 1.37 1.28 1.03 0.88 0.78 0.66 0.58 0.36 0.43 0.63 0.78 1.00 0.93 0.95 0.92 0.98 1.07 1.47 1.45 1.35 1.33 1.51 1.45 1.08 0.92 0.90 0.94 0.99 0.92
0.13 0.21 0.23 0.23 0.23 0.31 0.37 0.45 0.58 1.06 1.21 1.46 1.92 1.82 1.57 1.43 1.52 1.54 1.41 0.88 0.77 0.66 0.53 0.49 0.47 0.81 1.17 0.87 0.79 0.76 1.03 1.23 1.44 1.43 1.43 1.20 1.48 1.45 1.24 1.11 0.91 0.92 1.03
0.22 0.24 0.28 0.29 0.29 0.28 0.24 0.29 0.38 0.45 0.62 0.72 1.17 1.61 1.98 1.30 1.35 1.62 1.84 1.41 0.99 1.07 0.85 0.92 0.73 0.65 0.95 1.35 0.98 0.83 0.64 0.85 1.05 1.09 1.08 1.48 1.70 1.24 1.26 1.36 1.39 1.33 1.21
0.23 0.22 0.23 0.21 0.25 0.27 0.27 0.33 0.40 0.38 0.49 0.65 1.01 1.16 1.44 1.87 1.48 1.69 1.88 2.15 1.77 1.42 1.41 1.17 1.14 1.09 1.06 1.52 1.04 1.11 1.00 0.89 0.74 0.85 0.96 0.90 1.58 1.91 1.33 1.46 1.55 1.71 1.90
0.77 0.45 0.39 0.38 0.42 0.48 0.52 0.56 0.62 0.69 0.77 0.87 1.04 1.25 1.18 1.69 2.05 1.76 1.73 1.75 1.86 1.92 1.82 1.46 1.27 1.03 0.99 1.14 1.37 1.49 1.12 1.01 0.82 0.73 0.81 0.90 0.99 1.65 1.71 1.38 1.56 1.69 1.99
0.98 1.25 0.84 0.74 0.88 0.91 1.02 1.18 1.24 1.25 1.19 1.40 1.56 1.72 1.79 1.83 1.94 2.24 2.06 2.08 1.89 1.84 1.82 1.60 1.30 1.10 0.99 1.36 1.27 1.28 0.93 1.13 1.08 0.95 1.03 1.02 0.86 1.47 1.71 1.35 1.50 1.60 1.87
0.71 0.74 1.10 1.15 1.12 1.33 1.13 1.15 1.36 1.50 1.62 1.60 1.68 1.77 1.81 1.93 2.15 2.42 2.48 2.30 2.09 1.78 1.50 1.52 1.47 1.53 1.17 1.54 1.40 1.36 0.95 0.88 1.02 1.01 1.15 1.77 1.29 1.35 1.14 1.00 1.01 1.47 1.89
0.55 0.58 0.55 0.77 1.04 1.13 1.33 1.32 1.30 1.48 1.63 1.83 1.66 1.55 1.54 1.66 1.75 1.71 1.78 2.02 2.17 2.06 1.79 1.69 1.51 1.34 1.51 1.67 1.80 1.58 1.25 1.25 1.11 1.16 1.27 1.46 1.91 1.47 1.55 1.57 1.40 2.24 2.29
0.45 0.38 0.43 0.43 0.36 0.30 0.42 0.84 1.28 1.62 1.76 1.78 1.56 1.38 1.32 1.33 1.39 1.37 1.41 1.36 1.45 1.74 2.00 1.84 1.77 1.76 1.81 1.98 1.86 1.73 1.69 1.69 1.37 1.60 1.46 1.80 1.81 1.36 1.47 1.69 2.16 2.23 1.89
0.29 0.16 0.15 0.10 0.08 0.09 0.11 0.22 0.48 0.86 1.28 1.44 1.38 1.22 1.09 0.97 0.85 0.90 1.07 1.19 1.19 1.13 1.19 1.29 1.45 1.61 1.67 1.82 1.96 1.88 1.88 1.88 1.74 2.07 2.37 2.26 1.77 1.52 1.64 1.87 1.89 1.81 1.77
0.20 0.07 0.03 0.02 0.08 0.11 0.13 0.16 0.29 0.41 0.50 0.56 0.67 0.68 0.66 0.71 0.65 0.63 0.65 0.67 0.76 0.84 0.97 1.05 1.10 1.14 1.15 1.18 1.24 1.29 1.35 1.52 1.66 1.98 2.07 2.00 1.89 1.85 1.96 1.94 1.87 1.85 1.96
0.39 0.16 0.12 0.15 0.18 0.13 0.14 0.22 0.29 0.37 0.50 0.55 0.55 0.55 0.54 0.51 0.50 0.55 0.60 0.54 0.70 0.69 0.72 0.88 0.91 0.97 1.19 1.54 1.50 1.45 1.52 1.62 1.81 1.90 2.04 2.07 2.05 2.03 2.04 1.97 1.92 1.88 1.79
0.45 0.36 0.32 0.27 0.23 0.21 0.32 0.39 0.36 0.29 0.33 0.38 0.45 0.49 0.41 0.38 0.36 0.36 0.51 0.70 0.74 0.66 0.68 0.76 0.78 1.10 1.33 1.42 1.38 1.37 1.39 1.41 1.41 1.36 1.43 1.39 1.32 1.25 1.17 1.12 1.08 1.02 1.02

GFSMW_prec_precacc_165.txt.gz
Total_Precipitation_Accumulation
0.02 0.03 0.02 0.02 0.01 0.06 0.05 0.14 0.29 0.31 0.47 0.42 0.29 0.36 0.36 0.57 0.42 0.45 0.54 0.95 1.17 1.89 1.04 0.56 0.32 0.43 0.50 0.61 1.05 1.50 1.44 1.51 1.84 2.51 2.43 1.86 1.70 2.06 2.41 2.97 2.95 3.36 3.33
0.01 0.01 0.00 0.00 0.01 0.05 0.10 0.10 0.12 0.23 0.30 0.31 0.31 0.19 0.23 0.33 0.51 0.56 0.65 0.72 0.83 1.21 1.45 0.85 0.61 0.43 0.52 0.58 0.72 1.10 1.21 1.24 1.37 1.64 1.67 1.71 1.35 1.06 0.86 0.88 0.90 0.81 0.84
0.00 0.00 0.00 0.01 0.03 0.07 0.08 0.11 0.16 0.20 0.18 0.21 0.30 0.25 0.37 0.40 0.61 0.73 0.88 0.67 0.72 0.98 1.17 1.05 0.91 0.85 1.18 1.22 1.24 1.46 1.49 1.31 1.29 1.19 1.41 1.18 1.00 0.92 0.95 0.92 0.73 0.71 0.62
0.01 0.00 0.01 0.01 0.07 0.13 0.13 0.18 0.21 0.18 0.12 0.11 0.13 0.10 0.15 0.13 0.15 0.18 0.47 0.75 0.81 1.21 1.50 1.15 1.08 0.87 0.81 0.97 0.99 1.12 1.31 1.48 1.53 1.55 1.66 1.35 1.15 0.95 0.82 0.80 0.84 0.60 0.42
0.08 0.05 0.04 0.04 0.07 0.15 0.14 0.16 0.23 0.24 0.16 0.15 0.09 0.10 0.11 0.14 0.14 0.09 0.13 0.42 0.70 0.60 1.16 1.33 1.29 1.07 0.91 0.80 0.83 0.71 0.69 0.60 0.78 0.55 0.47 0.59 0.51 0.51 0.61 0.53 0.40 0.39 0.23
0.12 0.13 0.16 0.10 0.14 0.23 0.18 0.17 0.20 0.16 0.16 0.16 0.18 0.14 0.16 0.16 0.12 0.09 0.12 0.20 0.42 0.86 1.03 1.31 1.12 1.20 1.15 1.11 1.31 1.38 1.06 0.78 0.65 0.71 0.44 0.41 0.40 0.31 0.39 0.40 0.34 0.38 0.30
0.23 0.16 0.12 0.10 0.11 0.23 0.36 0.27 0.26 0.24 0.18 0.14 0.15 0.19 0.20 0.18 0.18 0.19 0.29 0.39 0.50 0.83 1.01 1.26 1.22 1.12 1.23 1.14 1.16 1.39 1.61 1.57 1.08 0.93 0.81 0.65 0.48 0.44 0.50 0.65 0.55 0.45 0.32
0.49 0.34 0.24 0.20 0.15 0.11 0.18 0.31 0.49 0.53 0.48 0.40 0.36 0.39 0.42 0.41 0.41 0.46 0.65 0.64 0.47 0.46 0.88 1.36 1.51 1.27 1.28 1.36 1.38 1.48 1.49 1.80 1.86 1.23 0.96 0.73 0.61 0.64 0.61 0.68 0.86 0.73 0.48
0.57 0.50 0.38 0.27 0.22 0.18 0.35 0.41 0.37 0.31 0.46 0.61 0.52 0.55 0.61 0.68 0.82 0.80 0.83 0.79 0.56 0.39 0.47 0.59 1.00 1.16 1.28 1.54 1.76 1.59 1.37 1.39 1.53 1.29 0.99 0.83 0.59 0.67 0.67 0.61 0.65 0.73 0.64
0.44 0.32 0.25 0.27 0.30 0.62 0.97 1.06 0.91 0.74 0.71 0.79 0.73 0.78 0.86 0.87 0.90 0.78 0.94 0.83 0.78 0.74 0.80 0.72 0.95 1.23 1.53 1.57 1.59 1.35 1.20 1.28 1.36 1.58 1.50 1.09 0.70 0.67 0.79 0.78 0.79 0.83 0.82
0.13 0.14 0.19 0.26 0.44 0.57 0.84 1.07 1.28 1.65 1.41 1.37 1.42 1.19 1.00 1.13 1.14 1.10 1.10 1.13 1.04 1.06 1.02 1.03 1.03 0.84 0.98 1.32 1.61 1.66 1.58 1.67 1.71 1.77 1.55 1.18 1.08 1.11 1.09 1.13 1.12 1.02 1.03
0.08 0.07 0.07 0.10 0.32 0.55 0.70 0.82 1.13 1.80 1.70 1.32 1.55 1.67 1.40 1.71 2.06 2.10 1.80 1.93 1.88 1.64 1.50 1.19 1.00 0.80 0.67 0.83 1.43 1.75 1.61 1.40 1.64 1.93 1.91 1.56 1.38 1.35 1.29 1.24 1.12 0.95 0.90
0.06 0.07 0.09 0.12 0.20 0.37 0.58 0.75 1.07 1.58 1.75 1.93 1.82 1.65 1.39 1.76 1.58 1.21 0.99 0.86 0.82 0.79 0.83 0.83 0.82 0.84 0.61 0.53 0.72 1.18 1.69 1.56 1.37 1.57 1.86 1.62 1.41 1.25 1.19 1.11 0.91 0.78 0.75
0.14 0.15 0.16 0.19 0.25 0.42 0.58 0.74 1.26 1.48 1.40 1.70 1.73 1.52 1.37 1.28 1.03 0.88 0.78 0.66 0.58 0.36 0.43 0.63 0.78 1.00 0.93 0.95 0.92 0.98 1.07 1.47 1.45 1.35 1.34 1.51 1.45 1.09 0.94 0.92 0.96 1.00 0.92
0.13 0.21 0.23 0.23 0.23 0.31 0.37 0.45 0.58 1.06 1.21 1.46 1.92 1.82 1.57 1.43 1.52 1.54 1.41 0.88 0.77 0.66 0.53 0.49 0.48 0.83 1.18 0.87 0.79 0.76 1.03 1.23 1.46 1.46 1.45 1.21 1.48 1.45 1.24 1.12 0.92 0.92 1.03
0.22 0.24 0.28 0.29 0.29 0.28 0.24 0.29 0.38 0.45 0.62 0.72 1.17 1.61 1.98 1.30 1.35 1.62 1.84 1.41 0.99 1.07 0.86 0.94 0.77 0.71 0.97 1.36 0.98 0.84 0.66 0.88 1.10 1.13 1.09 1.48 1.70 1.24 1.26 1.36 1.39 1.33 1.21
0.23 0.22 0.23 0.21 0.25 0.27 0.27 0.33 0.40 0.38 0.49 0.65 1.01 1.16 1.44 1.87 1.48 1.69 1.88 2.15 1.77 1.43 1.48 1.28 1.25 1.16 1.09 1.54 1.06 1.13 1.03 0.93 0.78 0.87 0.96 0.90 1.58 1.91 1.33 1.46 1.55 1.71 1.90
0.77 0.45 0.39 0.38 0.42 0.48 0.52 0.56 0.62 0.69 0.77 0.87 1.04 1.25 1.18 1.69 2.05 1.76 1.74 1.76 1.89 2.00 1.92 1.58 1.38 1.11 1.04 1.19 1.44 1.57 1.23 1.10 0.88 0.76 0.82 0.91 0.99 1.65 1.71 1.38 1.56 1.69 1.99
0.98 1.25 0.84 0.75 0.89 0.91 1.02 1.18 1.24 1.25 1.19 1.40 1.56 1.72 1.79 1.83 1.94 2.24 2.07 2.10 1.94 1.92 1.92 1.70 1.38 1.16 1.06 1.44 1.34 1.38 1.05 1.21 1.12 0.97 1.04 1.02 0.86 1.47 1.71 1.35 1.50 1.60 1.87
0.71 0.74 1.10 1.15 1.12 1.33 1.13 1.15 1.36 1.50 1.62 1.60 1.68 1.77 1.81 1.93 2.15 2.42 2.49 2.33 2.11 1.81 1.55 1.59 1.54 1.58 1.22 1.60 1.48 1.45 1.07 0.95 1.05 1.02 1.15 1.77 1.29 1.35 1.14 1.00 1.01 1.47 1.89
0.55 0.58 0.55 0.77 1.04 1.13 1.33 1.32 1.30 1.48 1.63 1.83 1.66 1.55 1.54 1.66 1.75 1.71 1.79 2.03 2.19 2.10 1.83 1.74 1.56 1.39 1.55 1.75 1.90 1.66 1.31 1.28 1.12 1.16 1.27 1.46 1.91 1.47 1.55 1.57 1.40 2.24 2.29
0.45 0.38 0.43 0.43 0.36 0.30 0.42 0.84 1.28 1.62 1.76 1.78 1.56 1.38 1.32 1.34 1.40 1.39 1.43 1.38 1.48 1.78 2.03 1.87 1.81 1.81 1.88 2.06 1.92 1.77 1.71 1.70 1.38 1.61 1.46 1.80 1.81 1.36 1.47 1.69 2.16 2.23 1.89
0.29 0.16 0.15 0.10 0.08 0.09 0.11 0.22 0.48 0.86 1.28 1.44 1.38 1.22 1.10 0.98 0.86 0.91 1.08 1.21 1.21 1.17 1.23 1.32 1.48 1.67 1.73 1.89 2.03 1.93 1.91 1.90 1.74 2.07 2.37 2.26 1.77 1.52 1.64 1.87 1.89 1.81 1.77
0.20 0.07 0.03 0.02 0.08 0.11 0.13 0.16 0.29 0.41 0.50 0.56 0.67 0.68 0.67 0.72 0.66 0.64 0.66 0.68 0.78 0.88 1.01 1.10 1.15 1.19 1.21 1.24 1.29 1.32 1.36 1.52 1.66 1.98 2.07 2.00 1.89 1.85 1.96 1.94 1.87 1.85 1.96
0.39 0.16 0.12 0.15 0.18 0.13 0.14 0.22 0.29 0.37 0.50 0.55 0.55 0.55 0.55 0.52 0.51 0.56 0.61 0.55 0.73 0.73 0.76 0.93 0.95 1.00 1.22 1.56 1.51 1.46 1.52 1.62 1.81 1.90 2.04 2.07 2.05 2.03 2.04 1.97 1.92 1.88 1.79
0.45 0.36 0.32 0.27 0.23 0.21 0.32 0.39 0.36 0.29 0.33 0.38 0.45 0.50 0.43 0.39 0.38 0.38 0.55 0.74 0.77 0.72 0.75 0.81 0.82 1.12 1.33 1.43 1.38 1.37 1.39 1.41 1.41 1.36 1.43 1.39 1.32 1.25 1.17 1.12 1.08 1.02 1.02

GFSMW_prec_precacc_168.txt.gz
Total_Precipitation_Accumulation
0.02 0.03 0.02 0.02 0.01 0.06 0.05 0.16 0.32 0.51 0.71 0.64 0.47 0.51 0.50 0.66 0.47 0.47 0.54 0.95 1.17 1.89 1.04 0.56 0.32 0.43 0.50 0.61 1.05 1.50 1.44 1.51 1.84 2.51 2.43 1.86 1.70 2.06 2.41 2.97 2.95 3.36 3.33
0.01 0.01 0.00 0.00 0.01 0.05 0.12 0.15 0.26 0.44 0.46 0.46 0.45 0.29 0.28 0.34 0.51 0.56 0.65 0.72 0.83 1.21 1.45 0.85 0.61 0.43 0.52 0.58 0.72 1.10 1.21 1.24 1.37 1.64 1.67 1.71 1.35 1.06 0.86 0.89 0.91 0.81 0.84
0.00 0.00 0.00 0.01 0.03 0.07 0.12 0.24 0.29 0.32 0.30 0.29 0.35 0.31 0.42 0.43 0.61 0.73 0.88 0.67 0.72 0.98 1.17 1.05 0.91 0.85 1.18 1.22 1.24 1.46 1.49 1.31 1.29 1.19 1.41 1.18 1.00 0.92 0.95 0.92 0.73 0.71 0.62
0.01 0.00 0.01 0.01 0.07 0.15 0.23 0.34 0.40 0.37 0.29 0.22 0.25 0.26 0.26 0.23 0.22 0.20 0.47 0.75 0.81 1.21 1.50 1.15 1.08 0.87 0.81 0.97 0.99 1.12 1.31 1.48 1.53 1.55 1.66 1.35 1.15 0.95 0.82 0.80 0.84 0.60 0.42
0.08 0.05 0.04 0.04 0.07 0.17 0.22 0.30 0.42 0.42 0.29 0.24 0.16 0.15 0.13 0.16 0.16 0.10 0.13 0.42 0.70 0.60 1.16 1.33 1.29 1.07 0.91 0.80 0.83 0.71 0.69 0.60 0.78 0.55 0.47 0.59 0.51 0.51 0.61 0.53 0.40 0.39 0.23
0.12 0.13 0.16 0.10 0.14 0.23 0.21 0.26 0.33 0.27 0.23 0.19 0.19 0.14 0.16 0.16 0.12 0.09 0.12 0.20 0.42 0.86 1.03 1.31 1.12 1.20 1.15 1.11 1.31 1.38 1.06 0.78 0.65 0.71 0.44 0.41 0.40 0.31 0.39 0.40 0.34 0.38 0.30
0.23 0.16 0.12 0.10 0.11 0.23 0.36 0.28 0.29 0.26 0.19 0.14 0.15 0.19 0.20 0.18 0.18 0.19 0.29 0.39 0.50 0.83 1.01 1.26 1.22 1.12 1.23 1.14 1.16 1.39 1.61 1.57 1.08 0.93 0.81 0.65 0.48 0.44 0.50 0.65 0.55 0.45 0.32
0.49 0.34 0.24 0.20 0.15 0.11 0.18 0.31 0.49 0.53 0.48 0.40 0.36 0.39 0.42 0.41 0.41 0.46 0.65 0.64 0.47 0.46 0.88 1.36 1.51 1.27 1.28 1.36 1.38 1.48 1.49 1.80 1.86 1.23 0.96 0.73 0.61 0.64 0.61 0.68 0.86 0.73 0.48
0.57 0.50 0.38 0.27 0.22 0.18 0.35 0.41 0.37 0.31 0.46 0.61 0.52 0.55 0.61 0.68 0.82 0.80 0.83 0.79 0.56 0.39 0.47 0.59 1.00 1.16 1.28 1.54 1.76 1.59 1.37 1.39 1.53 1.29 0.99 0.83 0.59 0.67 0.67 0.61 0.65 0.73 0.64
0.44 0.32 0.25 0.27 0.30 0.62 0.97 1.06 0.91 0.74 0.71 0.79 0.73 0.78 0.86 0.87 0.90 0.78 0.94 0.83 0.78 0.74 0.80 0.72 0.95 1.23 1.53 1.57 1.59 1.35 1.20 1.28 1.36 1.58 1.50 1.09 0.70 0.67 0.79 0.78 0.79 0.83 0.82
0.13 0.14 0.19 0.26 0.44 0.57 0.84 1.07 1.28 1.65 1.41 1.37 1.42 1.19 1.00 1.13 1.14 1.10 1.10 1.13 1.04 1.06 1.02 1.03 1.03 0.84 0.98 1.32 1.61 1.66 1.58 1.67 1.71 1.77 1.55 1.18 1.08 1.11 1.09 1.13 1.12 1.02 1.03
0.08 0.07 0.07 0.10 0.32 0.55 0.70 0.82 1.13 1.80 1.70 1.32 1.55 1.67 1.40 1.71 2.06 2.10 1.80 1.93 1.88 1.64 1.50 1.19 1.00 0.80 0.67 0.83 1.43 1.75 1.61 1.40 1.64 1.93 1.91 1.56 1.38 1.35 1.29 1.24 1.13 0.95 0.91
0.06 0.07 0.09 0.12 0.20 0.37 0.58 0.75 1.07 1.58 1.75 1.93 1.82 1.65 1.39 1.76 1.58 1.21 0.99 0.86 0.82 0.79 0.83 0.83 0.82 0.84 0.61 0.53 0.72 1.18 1.69 1.56 1.37 1.57 1.86 1.62 1.41 1.25 1.20 1.11 0.91 0.78 0.75
0.14 0.15 0.16 0.19 0.25 0.42 0.58 0.74 1.26 1.48 1.40 1.70 1.73 1.52 1.37 1.28 1.03 0.88 0.78 0.66 0.58 0.36 0.43 0.63 0.78 1.00 0.93 0.95 0.92 0.98 1.07 1.47 1.45 1.35 1.34 1.51 1.45 1.09 0.94 0.92 0.96 1.00 0.93
0.13 0.21 0.23 0.23 0.23 0.31 0.37 0.45 0.58 1.06 1.21 1.46 1.92 1.82 1.57 1.43 1.52 1.54 1.41 0.88 0.77 0.66 0.53 0.49 0.48 0.83 1.20 0.89 0.80 0.76 1.03 1.23 1.46 1.46 1.45 1.21 1.49 1.49 1.26 1.12 0.92 0.92 1.03
0.22 0.24 0.28 0.29 0.29 0.28 0.24 0.29 0.38 0.45 0.62 0.72 1.17 1.61 1.98 1.30 1.35 1.62 1.84 1.41 0.99 1.07 0.86 0.94 0.78 0.73 1.02 1.43 1.03 0.86 0.67 0.88 1.10 1.14 1.11 1.51 1.74 1.27 1.27 1.36 1.40 1.34 1.21
0.23 0.22 0.23 0.21 0.25 0.27 0.27 0.33 0.40 0.38 0.49 0.65 1.01 1.16 1.44 1.87 1.48 1.69 1.88 2.15 1.78 1.43 1.48 1.28 1.26 1.21 1.17 1.63 1.09 1.14 1.04 0.94 0.78 0.90 1.00 0.93 1.62 1.93 1.35 1.46 1.55 1.71 1.90
0.77 0.45 0.39 0.38 0.42 0.48 0.52 0.56 0.62 0.69 0.77 0.87 1.04 1.25 1.18 1.69 2.05 1.76 1.74 1.76 1.89 2.00 1.92 1.59 1.41 1.18 1.13 1.25 1.46 1.58 1.25 1.13 0.94 0.84 0.89 0.95 1.03 1.67 1.72 1.38 1.56 1.69 1.99
0.98 1.25 0.84 0.75 0.89 0.91 1.02 1.18 1.24 1.25 1.19 1.40 1.56 1.72 1.79 1.83 1.94 2.24 2.07 2.10 1.94 1.92 1.92 1.72 1.41 1.21 1.10 1.46 1.35 1.41 1.09 1.27 1.19 1.03 1.09 1.05 0.88 1.48 1.71 1.35 1.50 1.60 1.87
0.71 0.74 1.10 1.15 1.12 1.33 1.13 1.15 1.37 1.51 1.62 1.60 1.68 1.77 1.81 1.93 2.15 2.42 2.49 2.33 2.11 1.82 1.56 1.62 1.56 1.60 1.25 1.63 1.52 1.51 1.13 1.02 1.11 1.06 1.17 1.78 1.30 1.35 1.14 1.00 1.01 1.47 1.90
0.55 0.58 0.55 0.77 1.04 1.13 1.33 1.32 1.31 1.48 1.63 1.83 1.66 1.55 1.54 1.66 1.75 1.71 1.79 2.03 2.19 2.11 1.85 1.75 1.57 1.39 1.56 1.81 1.96 1.72 1.38 1.34 1.18 1.19 1.29 1.47 1.92 1.48 1.56 1.57 1.40 2.24 2.29
0.45 0.38 0.43 0.43 0.36 0.30 0.42 0.84 1.28 1.62 1.76 1.78 1.56 1.38 1.32 1.34 1.40 1.39 1.43 1.38 1.48 1.78 2.03 1.88 1.82 1.82 1.90 2.10 1.97 1.83 1.77 1.74 1.39 1.61 1.46 1.80 1.81 1.37 1.47 1.69 2.16 2.23 1.89
0.29 0.16 0.15 0.10 0.08 0.09 0.11 0.22 0.48 0.86 1.28 1.44 1.38 1.22 1.10 0.98 0.86 0.91 1.08 1.21 1.21 1.17 1.24 1.33 1.50 1.69 1.76 1.93 2.07 1.98 1.96 1.94 1.77 2.09 2.38 2.26 1.77 1.53 1.64 1.87 1.89 1.81 1.77
0.20 0.07 0.03 0.02 0.08 0.11 0.13 0.16 0.29 0.41 0.50 0.56 0.67 0.68 0.67 0.73 0.67 0.64 0.66 0.68 0.78 0.88 1.02 1.11 1.16 1.22 1.24 1.28 1.34 1.37 1.40 1.55 1.68 1.99 2.08 2.01 1.89 1.85 1.97 1.95 1.87 1.85 1.96
0.39 0.16 0.12 0.15 0.18 0.13 0.14 0.22 0.29 0.37 0.50 0.55 0.55 0.55 0.55 0.53 0.52 0.57 0.62 0.56 0.73 0.73 0.76 0.94 0.98 1.03 1.25 1.59 1.54 1.48 1.52 1.62 1.82 1.91 2.04 2.07 2.05 2.04 2.05 1.97 1.92 1.88 1.79
0.45 0.36 0.32 0.27 0.23 0.21 0.32 0.39 0.36 0.29 0.33 0.38 0.46 0.51 0.43 0.40 0.38 0.38 0.56 0.75 0.78 0.74 0.77 0.83 0.86 1.18 1.38 1.46 1.41 1.38 1.40 1.41 1.41 1.36 1.43 1.39 1.32 1.25 1.17 1.12 1.08 1.02 1.02

GFSMW_prec_precacc_174.txt.gz
Total_Precipitation_Accumulation
0.02 0.03 0.02 0.02 0.01 0.06 0.05 0.17 0.46 0.70 0.99 0.98 0.73 0.61 0.65 0.87 0.69 0.65 0.62 0.98 1.20 1.90 1.04 0.56 0.32 0.43 0.50 0.61 1.05 1.50 1.44 1.51 1.84 2.51 2.43 1.86 1.70 2.06 2.41 2.97 2.95 3.36 3.33
0.01 0.01 0.00 0.00 0.01 0.06 0.12 0.20 0.43 0.69 0.82 0.77 0.55 0.34 0.37 0.42 0.53 0.58 0.68 0.75 0.85 1.22 1.45 0.85 0.61 0.43 0.52 0.58 0.72 1.10 1.21 1.24 1.37 1.64 1.67 1.71 1.36 1.07 0.86 0.89 0.91 0.81 0.84
0.00 0.00 0.00 0.01 0.04 0.08 0.13 0.31 0.44 0.55 0.61 0.53 0.45 0.35 0.47 0.50 0.71 0.78 0.91 0.69 0.74 0.99 1.18 1.06 0.92 0.85 1.18 1.22 1.24 1.46 1.49 1.31 1.29 1.19 1.41 1.18 1.00 0.92 0.95 0.93 0.73 0.71 0.62
0.01 0.00 0.01 0.02 0.07 0.16 0.24 0.40 0.54 0.62 0.61 0.48 0.41 0.35 0.31 0.29 0.30 0.27 0.51 0.76 0.82 1.21 1.51 1.17 1.09 0.87 0.81 0.97 0.99 1.12 1.31 1.48 1.53 1.55 1.66 1.35 1.15 0.95 0.82 0.80 0.84 0.60 0.42
0.08 0.05 0.04 0.04 0.08 0.18 0.22 0.31 0.48 0.55 0.43 0.33 0.22 0.20 0.15 0.16 0.17 0.11 0.15 0.43 0.71 0.60 1.16 1.33 1.29 1.07 0.91 0.80 0.83 0.71 0.69 0.60 0.78 0.55 0.47 0.59 0.51 0.51 0.61 0.53 0.40 0.39 0.23
0.12 0.13 0.16 0.10 0.14 0.23 0.21 0.26 0.35 0.30 0.24 0.20 0.21 0.15 0.17 0.17 0.12 0.09 0.12 0.20 0.42 0.86 1.03 1.31 1.12 1.20 1.15 1.11 1.31 1.38 1.06 0.78 0.65 0.71 0.44 0.41 0.40 0.31 0.39 0.40 0.34 0.38 0.30
0.23 0.16 0.12 0.10 0.11 0.23 0.36 0.28 0.29 0.26 0.19 0.15 0.15 0.19 0.20 0.18 0.18 0.19 0.29 0.39 0.50 0.83 1.01 1.26 1.22 1.12 1.23 1.14 1.16 1.39 1.61 1.57 1.08 0.93 0.81 0.65 0.48 0.44 0.50 0.65 0.55 0.45 0.32
0.49 0.34 0.24 0.20 0.15 0.11 0.18 0.31 0.49 0.53 0.48 0.40 0.36 0.39 0.42 0.41 0.41 0.46 0.65 0.64 0.47 0.46 0.88 1.36 1.51 1.27 1.28 1.36 1.38 1.48 1.49 1.80 1.86 1.23 0.96 0.73 0.61 0.64 0.61 0.68 0.86 0.73 0.48
0.57 0.50 0.38 0.27 0.22 0.18 0.35 0.41 0.37 0.31 0.46 0.61 0.52 0.55 0.61 0.68 0.82 0.80 0.83 0.79 0.56 0.39 0.47 0.59 1.00 1.16 1.28 1.54 1.76 1.59 1.37 1.39 1.53 1.29 0.99 0.83 0.59 0.67 0.67 0.61 0.65 0.73 0.64
0.44 0.32 0.25 0.27 0.30 0.62 0.97 1.06 0.91 0.74 0.71 0.79 0.73 0.78 0.86 0.87 0.90 0.78 0.94 0.83 0.78 0.74 0.80 0.72 0.95 1.23 1.53 1.57 1.59 1.35 1.20 1.28 1.36 1.58 1.50 1.09 0.70 0.67 0.79 0.78 0.79 0.83 0.83
0.13 0.14 0.19 0.26 0.44 0.57 0.84 1.07 1.28 1.65 1.41 1.37 1.42 1.19 1.00 1.13 1.14 1.10 1.10 1.13 1.04 1.06 1.02 1.03 1.03 0.84 0.98 1.32 1.61 1.66 1.58 1.67 1.71 1.77 1.55 1.18 1.08 1.11 1.09 1.13 1.12 1.02 1.03
0.08 0.07 0.07 0.10 0.32 0.55 0.70 0.82 1.13 1.80 1.70 1.32 1.55 1.67 1.40 1.71 2.06 2.10 1.80 1.93 1.88 1.64 1.50 1.19 1.00 0.80 0.67 0.83 1.43 1.75 1.61 1.40 1.64 1.93 1.91 1.56 1.38 1.35 1.29 1.24 1.13 0.95 0.91
0.06 0.07 0.09 0.12 0.20 0.37 0.58 0.75 1.07 1.58 1.75 1.93 1.82 1.65 1.39 1.76 1.58 1.21 0.99 0.86 0.82 0.79 0.83 0.83 0.82 0.84 0.61 0.53 0.72 1.18 1.69 1.56 1.37 1.57 1.86 1.62 1.41 1.25 1.20 1.11 0.91 0.78 0.75
0.14 0.15 0.16 0.19 0.25 0.42 0.58 0.74 1.26 1.48 1.40 1.70 1.73 1.52 1.37 1.28 1.03 0.88 0.78 0.66 0.58 0.36 0.43 0.63 0.78 1.00 0.93 0.95 0.92 0.99 1.07 1.47 1.45 1.35 1.34 1.51 1.45 1.09 0.94 0.92 0.96 1.00 0.93
0.13 0.21 0.23 0.23 0.23 0.31 0.37 0.45 0.58 1.06 1.21 1.46 1.92 1.82 1.57 1.43 1.52 1.54 1.41 0.88 0.77 0.66 0.53 0.49 0.48 0.83 1.20 0.89 0.80 0.77 1.04 1.24 1.46 1.46 1.45 1.21 1.49 1.50 1.28 1.14 0.94 0.94 1.05
0.22 0.24 0.28 0.29 0.29 0.28 0.24 0.29 0.38 0.45 0.62 0.72 1.17 1.61 1.98 1.30 1.35 1.62 1.84 1.41 0.99 1.07 0.86 0.94 0.78 0.73 1.02 1.43 1.04 0.88 0.69 0.90 1.10 1.14 1.11 1.51 1.74 1.29 1.31 1.38 1.41 1.35 1.23
0.23 0.22 0.23 0.21 0.25 0.27 0.27 0.33 0.40 0.38 0.49 0.65 1.01 1.16 1.44 1.87 1.48 1.69 1.88 2.15 1.78 1.43 1.48 1.28 1.26 1.21 1.17 1.65 1.13 1.18 1.06 0.94 0.79 0.90 1.00 0.94 1.63 1.96 1.38 1.51 1.58 1.72 1.91
0.77 0.45 0.39 0.38 0.42 0.48 0.52 0.56 0.62 0.69 0.77 0.87 1.04 1.25 1.18 1.69 2.05 1.76 1.74 1.76 1.89 2.00 1.93 1.59 1.41 1.18 1.14 1.27 1.49 1.61 1.26 1.14 0.95 0.85 0.90 0.97 1.05 1.70 1.75 1.40 1.59 1.72 2.01
0.98 1.25 0.84 0.75 0.89 0.91 1.02 1.18 1.24 1.25 1.19 1.41 1.57 1.72 1.79 1.83 1.94 2.24 2.07 2.10 1.94 1.92 1.93 1.72 1.42 1.21 1.11 1.46 1.36 1.41 1.11 1.28 1.20 1.04 1.10 1.06 0.89 1.50 1.72 1.36 1.52 1.63 1.90
0.71 0.74 1.10 1.15 1.12 1.33 1.13 1.15 1.37 1.51 1.62 1.60 1.68 1.77 1.81 1.93 2.15 2.42 2.50 2.33 2.12 1.82 1.57 1.63 1.57 1.61 1.26 1.64 1.52 1.52 1.13 1.03 1.12 1.07 1.18 1.78 1.30 1.36 1.15 1.01 1.02 1.49 1.91
0.55 0.58 0.55 0.77 1.04 1.13 1.33 1.32 1.31 1.48 1.63 1.84 1.66 1.55 1.54 1.67 1.75 1.71 1.80 2.03 2.20 2.11 1.85 1.75 1.58 1.40 1.58 1.82 1.97 1.73 1.40 1.35 1.19 1.20 1.29 1.47 1.93 1.49 1.57 1.58 1.41 2.25 2.30
0.45 0.38 0.43 0.43 0.36 0.30 0.42 0.84 1.28 1.63 1.76 1.78 1.56 1.38 1.32 1.34 1.40 1.39 1.43 1.38 1.49 1.78 2.04 1.89 1.83 1.83 1.92 2.12 1.98 1.85 1.79 1.75 1.41 1.63 1.49 1.83 1.82 1.37 1.48 1.70 2.16 2.23 1.90
0.29 0.16 0.15 0.10 0.08 0.09 0.11 0.22 0.48 0.86 1.28 1.44 1.38 1.22 1.10 0.98 0.86 0.91 1.09 1.21 1.22 1.17 1.24 1.34 1.51 1.70 1.78 1.96 2.08 2.00 2.00 1.98 1.81 2.13 2.42 2.29 1.79 1.54 1.65 1.88 1.90 1.82 1.78
0.20 0.07 0.03 0.02 0.08 0.11 0.13 0.16 0.29 0.41 0.50 0.56 0.67 0.68 0.67 0.73 0.67 0.65 0.67 0.68 0.78 0.89 1.02 1.11 1.17 1.23 1.26 1.31 1.37 1.41 1.44 1.60 1.74 2.06 2.17 2.03 1.90 1.86 1.98 1.95 1.88 1.85 1.96
0.39 0.16 0.12 0.15 0.18 0.13 0.14 0.22 0.29 0.37 0.50 0.55 0.55 0.56 0.55 0.53 0.52 0.57 0.62 0.56 0.74 0.73 0.77 0.94 0.98 1.04 1.28 1.62 1.56 1.51 1.56 1.66 1.86 1.96 2.10 2.10 2.06 2.05 2.06 1.97 1.92 1.88 1.79
0.45 0.36 0.32 0.27 0.23 0.21 0.32 0.39 0.36 0.29 0.33 0.38 0.46 0.51 0.44 0.41 0.39 0.39 0.57 0.76 0.79 0.74 0.77 0.83 0.86 1.20 1.41 1.50 1.45 1.42 1.42 1.42 1.41 1.37 1.45 1.41 1.33 1.26 1.18 1.12 1.08 1.02 1.02

GFSMW_prec_precacc_177.txt.gz
Total_Precipitation_Accumulation
0.02 0.03 0.02 0.02 0.01 0.06 0.05 0.17 0.46 0.71 1.02 1.03 0.76 0.62 0.65 0.88 0.72 0.66 0.62 0.98 1.20 1.90 1.04 0.56 0.32 0.43 0.50 0.61 1.05 1.50 1.44 1.51 1.84 2.51 2.43 1.86 1.71 2.06 2.41 2.98 2.96 3.36 3.33
0.01 0.01 0.00 0.00 0.01 0.06 0.12 0.20 0.44 0.72 0.87 0.81 0.56 0.34 0.37 0.43 0.54 0.58 0.68 0.76 0.85 1.22 1.45 0.85 0.61 0.43 0.52 0.58 0.72 1.10 1.21 1.24 1.37 1.64 1.67 1.71 1.36 1.08 0.87 0.89 0.91 0.81 0.84
0.00 0.00 0.00 0.01 0.04 0.08 0.13 0.31 0.45 0.57 0.63 0.56 0.46 0.36 0.48 0.51 0.71 0.79 0.91 0.69 0.74 0.99 1.18 1.06 0.93 0.88 1.20 1.23 1.25 1.47 1.50 1.31 1.29 1.19 1.41 1.19 1.00 0.92 0.95 0.93 0.73 0.71 0.62
0.01 0.00 0.01 0.02 0.07 0.16 0.24 0.40 0.54 0.63 0.63 0.50 0.42 0.37 0.32 0.30 0.31 0.27 0.51 0.76 0.82 1.21 1.51 1.17 1.09 0.88 0.81 0.97 0.99 1.12 1.31 1.48 1.53 1.56 1.66 1.36 1.16 0.95 0.82 0.80 0.84 0.60 0.42
0.08 0.05 0.04 0.04 0.08 0.18 0.22 0.31 0.48 0.56 0.44 0.33 0.22 0.20 0.15 0.16 0.17 0.11 0.15 0.43 0.71 0.60 1.16 1.33 1.29 1.07 0.91 0.80 0.83 0.71 0.69 0.60 0.78 0.55 0.47 0.60 0.52 0.52 0.61 0.53 0.40 0.39 0.23
0.12 0.13 0.16 0.10 0.14 0.23 0.21 0.26 0.35 0.30 0.24 0.20 0.21 0.15 0.17 0.17 0.12 0.09 0.12 0.20 0.42 0.86 1.03 1.31 1.12 1.20 1.15 1.11 1.31 1.38 1.06 0.78 0.65 0.71 0.44 0.41 0.41 0.32 0.40 0.41 0.34 0.38 0.30
0.23 0.16 0.12 0.10 0.11 0.23 0.36 0.29 0.29 0.26 0.19 0.15 0.15 0.19 0.20 0.18 0.18 0.19 0.29 0.39 0.50 0.83 1.01 1.26 1.22 1.12 1.23 1.14 1.16 1.39 1.61 1.57 1.08 0.93 0.81 0.65 0.48 0.44 0.51 0.66 0.55 0.45 0.32
0.49 0.34 0.24 0.20 0.15 0.11 0.18 0.31 0.49 0.53 0.48 0.40 0.36 0.39 0.42 0.41 0.41 0.46 0.65 0.64 0.47 0.46 0.88 1.36 1.51 1.27 1.28 1.36 1.38 1.48 1.49 1.80 1.86 1.23 0.96 0.73 0.61 0.64 0.61 0.68 0.86 0.73 0.48
0.57 0.50 0.38 0.27 0.22 0.18 0.35 0.41 0.37 0.31 0.46 0.61 0.52 0.55 0.61 0.68 0.82 0.80 0.83 0.79 0.56 0.39 0.47 0.59 1.00 1.16 1.28 1.54 1.76 1.59 1.37 1.39 1.53 1.29 0.99 0.83 0.59 0.67 0.67 0.61 0.65 0.73 0.64
0.44 0.32 0.25 0.27 0.30 0.62 0.97 1.06 0.91 0.74 0.71 0.79 0.73 0.78 0.86 0.87 0.90 0.78 0.94 0.83 0.78 0.74 0.80 0.72 0.95 1.23 1.53 1.57 1.59 1.35 1.20 1.28 1.36 1.58 1.50 1.09 0.70 0.67 0.79 0.78 0.79 0.83 0.83
0.13 0.14 0.19 0.26 0.44 0.57 0.84 1.07 1.28 1.65 1.41 1.37 1.42 1.19 1.00 1.13 1.14 1.10 1.10 1.13 1.04 1.06 1.02 1.03 1.03 0.84 0.98 1.32 1.61 1.66 1.58 1.67 1.71 1.77 1.55 1.18 1.08 1.11 1.09 1.13 1.12 1.02 1.03
0.08 0.07 0.07 0.10 0.32 0.55 0.70 0.82 1.13 1.80 1.70 1.32 1.55 1.67 1.40 1.71 2.06 2.10 1.80 1.93 1.88 1.64 1.50 1.19 1.00 0.80 0.67 0.83 1.43 1.75 1.61 1.40 1.64 1.93 1.91 1.56 1.38 1.35 1.29 1.24 1.13 0.95 0.91
0.06 0.07 0.09 0.12 0.20 0.37 0.58 0.75 1.07 1.58 1.75 1.93 1.82 1.65 1.39 1.76 1.58 1.21 0.99 0.86 0.82 0.79 0.83 0.83 0.82 0.84 0.61 0.53 0.72 1.18 1.69 1.56 1.37 1.57 1.86 1.62 1.41 1.25 1.20 1.11 0.91 0.78 0.75
0.14 0.15 0.16 0.19 0.25 0.42 0.58 0.74 1.26 1.48 1.40 1.70 1.73 1.52 1.37 1.28 1.03 0.88 0.78 0.66 0.58 0.36 0.43 0.63 0.78 1.00 0.93 0.95 0.92 0.99 1.07 1.47 1.45 1.35 1.34 1.51 1.45 1.09 0.94 0.92 0.96 1.00 0.93
0.13 0.21 0.23 0.23 0.23 0.31 0.37 0.45 0.58 1.06 1.21 1.46 1.92 1.82 1.57 1.43 1.52 1.54 1.41 0.88 0.77 0.66 0.53 0.49 0.48 0.83 1.20 0.89 0.80 0.77 1.04 1.24 1.46 1.46 1.45 1.21 1.49 1.50 1.28 1.14 0.94 0.94 1.05
0.22 0.24 0.28 0.29 0.29 0.28 0.24 0.29 0.38 0.45 0.62 0.72 1.17 1.61 1.98 1.30 1.35 1.62 1.84 1.41 0.99 1.07 0.86 0.94 0.78 0.73 1.02 1.43 1.04 0.88 0.69 0.90 1.10 1.14 1.11 1.51 1.74 1.29 1.31 1.38 1.41 1.35 1.23
0.23 0.22 0.23 0.21 0.25 0.27 0.27 0.33 0.40 0.38 0.49 0.65 1.01 1.16 1.44 1.87 1.48 1.69 1.88 2.15 1.78 1.43 1.48 1.28 1.26 1.21 1.17 1.65 1.13 1.18 1.06 0.94 0.79 0.90 1.00 0.94 1.63 1.96 1.38 1.51 1.58 1.72 1.91
0.77 0.45 0.39 0.38 0.42 0.48 0.52 0.56 0.62 0.69 0.77 0.87 1.04 1.25 1.18 1.69 2.05 1.76 1.74 1.76 1.89 2.00 1.93 1.59 1.41 1.18 1.14 1.27 1.49 1.61 1.26 1.14 0.95 0.85 0.90 0.97 1.05 1.70 1.75 1.40 1.59 1.72 2.01
0.98 1.25 0.84 0.75 0.89 0.91 1.02 1.18 1.24 1.25 1.19 1.41 1.57 1.72 1.79 1.83 1.94 2.24 2.07 2.10 1.94 1.93 1.93 1.72 1.42 1.21 1.11 1.46 1.36 1.41 1.11 1.28 1.21 1.04 1.10 1.06 0.89 1.50 1.72 1.36 1.52 1.65 1.91
0.71 0.74 1.10 1.15 1.12 1.33 1.13 1.15 1.37 1.51 1.62 1.61 1.68 1.77 1.82 1.94 2.15 2.42 2.50 2.34 2.12 1.82 1.57 1.63 1.57 1.61 1.26 1.64 1.52 1.52 1.14 1.04 1.13 1.08 1.18 1.78 1.30 1.36 1.15 1.01 1.03 1.50 1.93
0.55 0.58 0.55 0.77 1.04 1.13 1.33 1.32 1.31 1.48 1.64 1.84 1.67 1.56 1.54 1.67 1.75 1.72 1.80 2.04 2.20 2.11 1.86 1.76 1.58 1.41 1.58 1.82 1.97 1.73 1.40 1.35 1.19 1.20 1.30 1.47 1.93 1.49 1.57 1.58 1.42 2.26 2.30
0.45 0.38 0.43 0.43 0.36 0.30 0.42 0.84 1.28 1.63 1.77 1.78 1.56 1.38 1.32 1.34 1.40 1.39 1.44 1.38 1.49 1.79 2.04 1.89 1.83 1.83 1.92 2.12 1.98 1.85 1.80 1.76 1.41 1.64 1.50 1.83 1.82 1.38 1.48 1.70 2.16 2.23 1.90
0.29 0.16 0.15 0.10 0.08 0.09 0.11 0.22 0.48 0.86 1.28 1.44 1.39 1.22 1.10 0.98 0.87 0.92 1.09 1.21 1.22 1.18 1.24 1.34 1.51 1.70 1.79 1.96 2.08 2.00 2.00 1.98 1.83 2.14 2.43 2.29 1.80 1.54 1.67 1.88 1.90 1.82 1.78
0.20 0.07 0.03 0.02 0.08 0.11 0.13 0.16 0.29 0.41 0.50 0.56 0.67 0.68 0.67 0.73 0.67 0.65 0.67 0.68 0.78 0.89 1.03 1.11 1.17 1.23 1.26 1.31 1.37 1.41 1.45 1.60 1.75 2.07 2.18 2.04 1.92 1.90 1.99 1.96 1.88 1.85 1.96
0.39 0.16 0.12 0.15 0.18 0.13 0.14 0.22 0.29 0.37 0.50 0.55 0.55 0.56 0.55 0.53 0.53 0.58 0.62 0.56 0.74 0.73 0.77 0.94 0.98 1.05 1.28 1.63 1.57 1.52 1.56 1.68 1.88 1.99 2.12 2.12 2.09 2.08 2.07 1.97 1.93 1.88 1.79
0.45 0.36 0.32 0.27 0.23 0.21 0.32 0.39 0.36 0.29 0.33 0.38 0.46 0.51 0.44 0.41 0.39 0.40 0.57 0.76 0.79 0.74 0.77 0.83 0.86 1.20 1.41 1.50 1.45 1.42 1.42 1.42 1.42 1.39 1.46 1.42 1.35 1.28 1.19 1.13 1.09 1.02 1.02